Weather History for Eureka Airport, NV

Change the Weather History Date:

Saturday, December 8, 2012

  Actual Average Record
Temperature  
Mean Temperature 32 °F -  
Max Temperature 46 °F - - ()
Min Temperature 19 °F - - ()
Degree Days  
Heating Degree Days 32    
Moisture  
Dew Point 13 °F    
Average Humidity 45    
Maximum Humidity 69    
Minimum Humidity 27    
Precipitation  
Precipitation 0.00 in - - ()
Sea Level Pressure  
Sea Level Pressure 30.04 in    
Wind  
Wind Speed 6 mph (WNW)    
Max Wind Speed 16 mph    
Max Gust Speed 29 mph    
Visibility 10 miles    
Events      
T = Trace of Precipitation, MM = Missing Value Source: NWS Daily Summary

Daily Weather History Graph

Daily Weather History Graph

Search for Another Location

Airport:

Trip Planner

Search our weather history database for the weather conditions in past years. The results will help you decide how hot, cold, wet, or windy it might be!

Date:

Astronomy

Dec. 08, 2012 Rise Set
Actual Time 6:52 AM PST 4:19 PM PST
Civil Twilight 6:22 AM PST 4:49 PM PST
Nautical Twilight 5:48 AM PST 5:23 PM PST
Astronomical Twilight 5:16 AM PST 5:56 PM PST
Moon 1:23 AM PST (12/8) 12:51 PM PST (12/8)
Length of Visible Light 10h 27m
Length of Day
9h 27m
Waning Crescent, 27% of the Moon is Illuminated
Dec 8
Waning Crescent
Dec 13
New
Dec 19
First Quarter
Dec 28
Full
Jan 4
Last Quarter

Hourly Weather History & Observations

Time (PST) Temp. Windchill Dew Point Humidity Pressure Visibility Wind Dir Wind Speed Gust Speed Precip Events Conditions
12:00 AM 23.0 °F - 12.2 °F 63% 30.05 in 10.0 mi Calm Calm - N/A   Clear
12:20 AM 24.8 °F 20.5 °F 12.2 °F 59% 30.04 in 10.0 mi SSW 3.5 mph - N/A   Clear
12:40 AM 24.8 °F 16.9 °F 10.4 °F 54% 30.04 in 10.0 mi SW 6.9 mph - N/A   Unknown
1:00 AM 23.0 °F 14.7 °F 10.4 °F 59% 30.04 in 10.0 mi WSW 6.9 mph - N/A   Clear
1:20 AM 24.8 °F 17.9 °F 10.4 °F 54% 30.03 in 10.0 mi WSW 5.8 mph - N/A   Clear
1:40 AM 26.6 °F 18.2 °F 8.6 °F 47% 30.04 in 10.0 mi WSW 8.1 mph - N/A   Clear
2:00 AM 33.8 °F 27.7 °F 5.0 °F 30% 30.04 in 10.0 mi SW 6.9 mph - N/A   Clear
2:20 AM 32.0 °F 26.4 °F 6.8 °F 35% 30.04 in 10.0 mi West 5.8 mph - N/A   Clear
2:40 AM 32.0 °F 24.2 °F 5.0 °F 32% 30.03 in 10.0 mi WSW 9.2 mph - N/A   Clear
3:00 AM 30.2 °F 20.8 °F 6.8 °F 37% 30.02 in 10.0 mi WSW 11.5 mph - N/A   Clear
3:20 AM 32.0 °F 24.8 °F 6.8 °F 35% 30.02 in 10.0 mi West 8.1 mph - N/A   Clear
3:40 AM 32.0 °F 23.6 °F 6.8 °F 35% 30.02 in 10.0 mi WSW 10.4 mph - N/A   Clear
4:00 AM 32.0 °F 23.0 °F 6.8 °F 35% 30.02 in 10.0 mi WSW 11.5 mph - N/A   Clear
4:20 AM 32.0 °F 27.5 °F 6.8 °F 35% 30.02 in 10.0 mi WNW 4.6 mph - N/A   Clear
4:40 AM 32.0 °F - 6.8 °F 35% 30.02 in 10.0 mi Calm Calm - N/A   Clear
5:00 AM 28.4 °F 24.6 °F 8.6 °F 43% 30.03 in 10.0 mi SW 3.5 mph - N/A   Clear
5:20 AM 26.6 °F 18.2 °F 10.4 °F 51% 30.02 in 10.0 mi SW 8.1 mph - N/A   Clear
5:40 AM 23.0 °F 15.8 °F 10.4 °F 59% 30.02 in 10.0 mi SSW 5.8 mph - N/A   Clear
6:00 AM 23.0 °F 18.4 °F 10.4 °F 59% 30.02 in 10.0 mi South 3.5 mph - N/A   Clear
6:20 AM 23.0 °F 14.7 °F 10.4 °F 59% 30.02 in 10.0 mi SSW 6.9 mph - N/A   Clear
6:40 AM 19.4 °F - 10.4 °F 68% 30.03 in 10.0 mi Calm Calm - N/A   Clear
7:00 AM 19.4 °F - 10.4 °F 68% 30.03 in 10.0 mi Calm Calm - N/A   Clear
7:20 AM 19.4 °F - 10.4 °F 68% 30.03 in 10.0 mi Calm Calm - N/A   Clear
7:40 AM 23.0 °F 18.4 °F 12.2 °F 63% 30.04 in 10.0 mi SSE 3.5 mph - N/A   Clear
8:00 AM 28.4 °F - 14.0 °F 55% 30.05 in 10.0 mi Calm Calm - N/A   Clear
8:20 AM 32.0 °F 28.7 °F 14.0 °F 48% 30.05 in 10.0 mi SW 3.5 mph - N/A   Clear
8:40 AM 35.6 °F 32.8 °F 14.0 °F 41% 30.05 in 10.0 mi SSW 3.5 mph - N/A   Clear
9:00 AM 37.4 °F 33.8 °F 14.0 °F 38% 30.06 in 10.0 mi WSW 4.6 mph - N/A   Clear
9:20 AM 41.0 °F 37.1 °F 14.0 °F 33% 30.06 in 10.0 mi West 5.8 mph - N/A   Clear
9:40 AM 41.0 °F 35.2 °F 14.0 °F 33% 30.07 in 10.0 mi West 9.2 mph - N/A   Clear
10:00 AM 41.0 °F 35.8 °F 14.0 °F 33% 30.07 in 10.0 mi SW 8.1 mph - N/A   Clear
10:20 AM 42.8 °F 38.6 °F 14.0 °F 31% 30.07 in 10.0 mi NW 6.9 mph - N/A   Clear
10:40 AM 44.6 °F 40.7 °F 14.0 °F 29% 30.07 in 10.0 mi WNW 6.9 mph - N/A   Clear
11:00 AM 44.6 °F 40.2 °F 14.0 °F 29% 30.06 in 10.0 mi NW 8.1 mph - N/A   Scattered Clouds
11:20 AM 46.4 °F 41.1 °F 14.0 °F 27% 30.05 in 10.0 mi NW 11.5 mph - N/A   Mostly Cloudy
11:40 AM 46.4 °F 41.1 °F 14.0 °F 27% 30.05 in 10.0 mi NW 11.5 mph 16.1 mph N/A   Overcast
12:00 PM 46.4 °F 41.9 °F 14.0 °F 27% 30.04 in 10.0 mi WNW 9.2 mph - N/A   Scattered Clouds
12:20 PM 46.4 °F 41.9 °F 14.0 °F 27% 30.03 in 10.0 mi NW 9.2 mph 18.4 mph N/A   Clear
12:40 PM 46.4 °F 39.8 °F 14.0 °F 27% 30.02 in 10.0 mi NW 16.1 mph 25.3 mph N/A   Clear
1:00 PM 46.4 °F 40.4 °F 15.8 °F 29% 30.01 in 10.0 mi WNW 13.8 mph 23.0 mph N/A   Clear
1:20 PM 46.4 °F 40.7 °F 15.8 °F 29% 30.01 in 10.0 mi NW 12.7 mph 28.8 mph N/A   Clear
1:40 PM 46.4 °F 40.4 °F 15.8 °F 29% 30.00 in 10.0 mi West 13.8 mph 18.4 mph N/A   Clear
2:00 PM 46.4 °F 41.9 °F 15.8 °F 29% 30.00 in 10.0 mi WNW 9.2 mph 20.7 mph N/A   Clear
2:20 PM 46.4 °F 41.5 °F 15.8 °F 29% 30.00 in 10.0 mi NW 10.4 mph 26.5 mph N/A   Clear
2:40 PM 44.6 °F 38.1 °F 15.8 °F 31% 30.01 in 10.0 mi NNW 13.8 mph 20.7 mph N/A   Clear
3:00 PM 42.8 °F 36.6 °F 15.8 °F 34% 30.00 in 10.0 mi NW 11.5 mph 18.4 mph N/A   Clear
3:20 PM 42.8 °F 37.5 °F 15.8 °F 34% 30.00 in 10.0 mi NW 9.2 mph 17.3 mph N/A   Clear
3:40 PM 41.0 °F 33.9 °F 15.8 °F 36% 30.01 in 10.0 mi NW 12.7 mph 17.3 mph N/A   Clear
4:00 PM 39.2 °F 32.0 °F 15.8 °F 39% 30.01 in 10.0 mi NW 11.5 mph - N/A   Clear
4:20 PM 37.4 °F 30.3 °F 15.8 °F 41% 30.01 in 10.0 mi NW 10.4 mph 17.3 mph N/A   Clear
4:40 PM 37.4 °F 29.8 °F 15.8 °F 41% 30.02 in 10.0 mi NW 11.5 mph - N/A   Clear
5:00 PM 37.4 °F 30.3 °F 15.8 °F 41% 30.02 in 10.0 mi NNW 10.4 mph - N/A   Clear
5:40 PM 35.6 °F 28.0 °F 17.6 °F 48% 30.04 in 10.0 mi NNW 10.4 mph - N/A   Clear
6:20 PM 33.8 °F 27.0 °F 17.6 °F 52% 30.05 in 10.0 mi NNW 8.1 mph - N/A   Clear
6:40 PM 35.6 °F 29.9 °F 17.6 °F 48% 30.06 in 10.0 mi NNW 6.9 mph 19.6 mph N/A   Partly Cloudy
7:20 PM 32.0 °F 26.4 °F 17.6 °F 55% 30.07 in 10.0 mi North 5.8 mph - N/A   Clear
8:00 PM 28.4 °F 21.2 °F 17.6 °F 64% 30.08 in 10.0 mi NNE 6.9 mph - N/A   Clear
8:40 PM 28.4 °F 24.6 °F 17.6 °F 64% 30.09 in 10.0 mi North 3.5 mph - N/A   Mostly Cloudy
9:00 PM 28.4 °F 24.6 °F 17.6 °F 64% 30.09 in 10.0 mi North 3.5 mph - N/A   Mostly Cloudy
9:20 PM 28.4 °F 22.2 °F 17.6 °F 64% 30.10 in 10.0 mi North 5.8 mph - N/A   Overcast
10:00 PM 28.4 °F - 17.6 °F 64% 30.11 in 10.0 mi Calm Calm - N/A   Overcast
10:20 PM 30.2 °F 23.4 °F 17.6 °F 60% 30.13 in 10.0 mi North 6.9 mph - N/A   Overcast
10:40 PM 30.2 °F 23.4 °F 17.6 °F 60% 30.12 in 10.0 mi North 6.9 mph - N/A   Overcast
11:00 PM 30.2 °F 23.4 °F 17.6 °F 60% 30.12 in 10.0 mi NE 6.9 mph - N/A   Overcast
11:20 PM 28.4 °F 21.2 °F 17.6 °F 64% 30.14 in 10.0 mi North 6.9 mph - N/A   Mostly Cloudy
11:40 PM 26.6 °F - 17.6 °F 69% 30.14 in 10.0 mi Calm Calm - N/A   Partly Cloudy